Location: Del Amo
(33.8464°N, 118.2104°W)
Time: 19:10:18
(UTC+00:00)

Vanguard 1 Rocket - Pass Details

Date: 18 September 2024
Orbit: 650 x 4218 km, 34.3° (Epoch: 04 October)

Event Time Altitude Azimuth Distance (km) Brightness Sun altitude
Rises 11:15:13 0° 251° (WSW) 4,980 - -29.7°
Reaches altitude 10° 11:17:48 10° 251° (WSW) 4,323 - -29.2°
Exits shadow 11:23:53 42° 248° (WSW) 3,167 9.5 -28.0°
Maximum altitude 11:30:51 84° 165° (SSE) 2,988 9.8 -26.7°
Drops below altitude 10° 11:55:10 10° 81° (E) 7,336 13.1 -21.9°
Sets 12:01:17 0° 81° (E) 8,463 13.9 -20.7°
